GW0982 Weather Reports


time (UTC)temp
C
wind
direction
speed
KPH
gust
KPH
rain 1hr
cm
rain 24hr
cm
rain mn
cm
humidity
%
barometer
mb
20260504151010 8 246 0.0 0.0 0.00 0.00 0.00 65 1014.4
20260504150508 8 258 0.0 0.0 0.00 0.00 0.00 66 1014.4
20260504140933 7 238 0.0 0.0 0.00 0.00 0.00 71 1013.9
20260504140430 6 214 0.0 0.0 0.00 0.00 0.00 73 1013.8
20260504130355 5 269 0.0 0.0 0.00 0.00 0.00 75 1013.2
20260504120318 5 252 0.0 0.0 0.00 0.00 0.00 73 1012.8
20260504110242 5 248 0.0 0.0 0.00 0.00 0.00 69 1012.3
20260504100200 6 262 0.0 0.0 0.00 0.00 0.00 66 1011.6
20260504090122 7 253 0.0 0.0 0.00 0.00 0.00 61 1011.4
20260504081552 8 251 0.0 0.0 0.00 0.00 0.00 57 1011.1
20260504081048 8 245 0.0 0.0 0.00 0.00 0.00 56 1011.2
20260504080545 8 257 0.0 0.0 0.00 0.00 0.00 56 1011.1
20260504050358 12 251 0.0 0.0 0.00 0.00 0.00 40 1010.3
20260504045855 12 242 0.0 0.0 0.00 0.00 0.00 41 1010.2
20260504045350 12 245 0.0 0.0 0.00 0.00 0.00 40 1010.3
20260504044847 13 250 0.0 0.0 0.00 0.00 0.00 39 1010.3
20260504044344 13 284 0.0 0.0 0.00 0.00 0.00 39 1010.3
20260504043842 13 247 0.0 0.0 0.00 0.00 0.00 38 1010.3
20260504043338 13 239 0.0 0.0 0.00 0.00 0.00 37 1010.2
20260504042836 14 242 0.0 0.0 0.00 0.00 0.00 36 1010.1
20260504042332 14 238 0.0 0.0 0.00 0.00 0.00 35 1010.1
20260504041828 15 248 0.0 0.0 0.00 0.00 0.00 35 1010.0
20260504041325 15 241 0.0 0.0 0.00 0.00 0.00 34 1010.0
20260504040821 15 248 0.0 0.0 0.00 0.00 0.00 33 1010.0
20260504040319 16 268 0.0 0.0 0.00 0.00 0.00 31 1009.9
20260504035814 15 265 0.0 0.0 0.00 0.00 0.00 31 1009.9
20260504035312 15 299 0.0 0.0 0.00 0.00 0.00 34 1010.1
20260504034809 16 273 0.0 0.0 0.00 0.00 0.00 33 1010.0
20260504034307 16 247 0.0 0.0 0.00 0.00 0.00 32 1010.0
20260504033804 15 265 0.0 1.6 0.00 0.00 0.00 32 1009.8
20260504033301 15 252 0.0 0.0 0.00 0.00 0.00 35 1009.8
20260504032758 15 243 0.0 0.0 0.00 0.00 0.00 35 1009.7
20260504032255 16 264 0.0 0.0 0.00 0.00 0.00 33 1009.6
20260504031751 16 243 0.0 0.0 0.00 0.00 0.00 33 1009.6
20260504031249 17 259 0.0 0.0 0.00 0.00 0.00 30 1009.6
20260504030745 17 236 0.0 0.0 0.00 0.00 0.00 29 1009.5
20260504030242 18 244 0.0 0.0 0.00 0.00 0.00 29 1009.5
20260504025738 18 251 0.0 0.0 0.00 0.00 0.00 28 1009.4
20260504025235 19 249 0.0 0.0 0.00 0.00 0.00 26 1009.5
20260504024732 19 249 0.0 0.0 0.00 0.00 0.00 26 1009.5
20260504024229 20 245 0.0 0.0 0.00 0.00 0.00 26 1009.6
20260504023726 20 257 1.6 1.6 0.00 0.00 0.00 25 1009.6
20260504023222 20 269 1.6 1.6 0.00 0.00 0.00 23 1009.7
20260504022718 20 274 3.2 3.2 0.00 0.00 0.00 23 1009.5
20260504022215 20 272 1.6 1.6 0.00 0.00 0.00 23 1009.6
20260504021712 21 278 0.0 1.6 0.00 0.00 0.00 22 1009.6
20260504021209 21 275 3.2 3.2 0.00 0.00 0.00 22 1009.5
20260504020706 21 286 4.8 8.0 0.00 0.00 0.00 21 1009.5
20260504020201 21 291 8.0 11.3 0.00 0.00 0.00 20 1009.5
20260504015658 21 303 4.8 8.0 0.00 0.00 0.00 20 1009.4
20260504015154 21 299 3.2 4.8 0.00 0.00 0.00 21 1009.5
20260504014650 22 271 9.7 12.9 0.00 0.00 0.00 19 1009.5
20260504014148 22 293 8.0 9.7 0.00 0.00 0.00 20 1009.2
20260504013646 22 311 11.3 16.1 0.00 0.00 0.00 19 1009.4
20260504013142 22 294 11.3 16.1 0.00 0.00 0.00 19 1009.4
20260504012639 22 271 12.9 14.5 0.00 0.00 0.00 19 1009.4
20260504012137 22 292 8.0 22.5 0.00 0.00 0.00 19 1009.2
20260504011634 22 263 12.9 16.1 0.00 0.00 0.00 18 1009.2
20260504011130 23 308 11.3 16.1 0.00 0.00 0.00 18 1009.2
20260504010626 23 285 11.3 12.9 0.00 0.00 0.00 18 1009.1
20260504010122 23 281 9.7 14.5 0.00 0.00 0.00 19 1009.4
20260504005619 22 299 4.8 4.8 0.00 0.00 0.00 18 1009.2
20260504005116 23 280 6.4 8.0 0.00 0.00 0.00 18 1008.9
20260504004614 23 277 11.3 22.5 0.00 0.00 0.00 18 1009.2
20260504004111 23 269 12.9 14.5 0.00 0.00 0.00 18 1009.1
20260504003607 23 308 9.7 12.9 0.00 0.00 0.00 17 1009.4
20260504003104 23 270 9.7 12.9 0.00 0.00 0.00 18 1009.2
20260504002601 23 264 11.3 12.9 0.00 0.00 0.00 18 1009.5
20260504002058 23 255 14.5 16.1 0.00 0.00 0.00 17 1009.2
20260504001556 23 256 8.0 9.7 0.00 0.00 0.00 18 1009.2
20260504001051 23 270 12.9 16.1 0.00 0.00 0.00 18 1009.1
20260504000549 24 294 11.3 14.5 0.00 0.00 0.00 18 1009.1
20260504000047 24 274 11.3 12.9 0.00 0.00 0.00 18 1008.8
20260503235545 23 279 9.7 11.3 0.00 0.00 0.00 19 1009.2
20260503235041 23 266 14.5 17.7 0.00 0.00 0.00 18 1009.1
20260503234538 24 257 11.3 16.1 0.00 0.00 0.00 18 1009.1
20260503234037 24 291 9.7 11.3 0.00 0.00 0.00 19 1009.0
20260503233533 23 284 6.4 12.9 0.00 0.00 0.00 18 1009.0
20260503233029 25 268 12.9 14.5 0.00 0.00 0.00 18 1009.2
20260503232526 23 294 4.8 8.0 0.00 0.00 0.00 20 1009.0
20260503232024 24 283 1.6 4.8 0.00 0.00 0.00 19 1009.1
20260503231522 23 280 12.9 16.1 0.00 0.00 0.00 19 1009.4
20260503231018 23 308 3.2 3.2 0.00 0.00 0.00 20 1009.1
20260503230514 23 276 11.3 12.9 0.00 0.00 0.00 19 1009.4
20260503230012 24 253 3.2 3.2 0.00 0.00 0.00 19 1009.2
20260503225509 24 300 6.4 11.3 0.00 0.00 0.00 19 1009.5
20260503225004 23 298 0.0 0.0 0.00 0.00 0.00 19 1009.5
20260503224502 23 279 11.3 14.5 0.00 0.00 0.00 18 1009.6
20260503223959 24 189 3.2 8.0 0.00 0.00 0.00 19 1009.6
20260503223457 23 254 0.0 0.0 0.00 0.00 0.00 20 1009.6
20260503222952 23 350 0.0 0.0 0.00 0.00 0.00 18 1009.7
20260503222451 23 310 14.5 17.7 0.00 0.00 0.00 19 1009.7
20260503221949 23 293 1.6 8.0 0.00 0.00 0.00 19 1009.7
20260503221447 23 296 3.2 8.0 0.00 0.00 0.00 18 1009.8
20260503220943 23 253 17.7 20.9 0.00 0.00 0.00 18 1009.8
20260503220439 23 288 8.0 14.5 0.00 0.00 0.00 18 1010.0
20260503215937 24 274 6.4 9.7 0.00 0.00 0.00 18 1010.0
20260503215433 25 318 6.4 9.7 0.00 0.00 0.00 19 1010.0
20260503214931 25 230 0.0 0.0 0.00 0.00 0.00 18 1010.1
20260503214429 23 245 0.0 0.0 0.00 0.00 0.00 20 1010.1
20260503213926 25 272 4.8 4.8 0.00 0.00 0.00 18 1010.2
20260503213424 24 288 0.0 0.0 0.00 0.00 0.00 18 1010.3
20260503212920 23 284 4.8 4.8 0.00 0.00 0.00 18 1010.6
20260503212418 23 303 4.8 4.8 0.00 0.00 0.00 19 1010.7
20260503211915 22 288 9.7 11.3 0.00 0.00 0.00 20 1010.6
20260503211412 22 68 0.0 1.6 0.00 0.00 0.00 21 1010.9
20260503210907 23 269 14.5 17.7 0.00 0.00 0.00 20 1010.9
20260503210404 22 270 12.9 14.5 0.00 0.00 0.00 19 1011.0
20260503205859 22 258 4.8 8.0 0.00 0.00 0.00 21 1011.2
20260503205356 23 289 4.8 8.0 0.00 0.00 0.00 21 1011.2
20260503204852 22 290 9.7 11.3 0.00 0.00 0.00 21 1011.2
20260503204349 22 252 0.0 0.0 0.00 0.00 0.00 22 1011.4
20260503203847 23 292 9.7 14.5 0.00 0.00 0.00 21 1011.6
20260503203344 21 280 4.8 4.8 0.00 0.00 0.00 22 1011.4
20260503202841 22 237 1.6 8.0 0.00 0.00 0.00 21 1011.6
20260503202339 21 266 4.8 8.0 0.00 0.00 0.00 22 1012.0
20260503201838 22 275 9.7 11.3 0.00 0.00 0.00 22 1012.0
20260503201334 21 279 8.0 9.7 0.00 0.00 0.00 21 1012.0
20260503200832 21 296 11.3 11.3 0.00 0.00 0.00 21 1012.1
20260503200327 21 290 11.3 14.5 0.00 0.00 0.00 23 1012.3
20260503195825 21 279 6.4 8.0 0.00 0.00 0.00 22 1012.3
20260503195321 21 291 8.0 9.7 0.00 0.00 0.00 22 1012.4
20260503194819 20 271 19.3 20.9 0.00 0.00 0.00 22 1012.6
20260503194314 20 267 8.0 9.7 0.00 0.00 0.00 23 1012.7
20260503193811 20 284 3.2 4.8 0.00 0.00 0.00 24 1012.8
20260503193307 20 292 11.3 14.5 0.00 0.00 0.00 25 1012.8
20260503192803 20 277 19.3 22.5 0.00 0.00 0.00 25 1013.1
20260503192258 19 283 4.8 4.8 0.00 0.00 0.00 25 1013.2
20260503191755 20 240 0.0 0.0 0.00 0.00 0.00 25 1013.4
20260503191252 20 282 12.9 16.1 0.00 0.00 0.00 26 1013.5
20260503190748 19 224 11.3 14.5 0.00 0.00 0.00 25 1013.5
20260503190245 19 282 9.7 11.3 0.00 0.00 0.00 25 1013.6
20260503185743 19 230 17.7 22.5 0.00 0.00 0.00 25 1013.6
20260503185238 19 284 11.3 12.9 0.00 0.00 0.00 26 1013.7
20260503184733 19 286 11.3 16.1 0.00 0.00 0.00 26 1013.7
20260503184230 19 272 17.7 24.1 0.00 0.00 0.00 26 1013.9
20260503183726 18 277 11.3 14.5 0.00 0.00 0.00 26 1013.9
20260503183223 18 252 3.2 4.8 0.00 0.00 0.00 28 1013.9
20260503182721 18 280 9.7 12.9 0.00 0.00 0.00 29 1014.2
20260503182220 17 283 8.0 9.7 0.00 0.00 0.00 29 1014.1
20260503181716 17 285 11.3 12.9 0.00 0.00 0.00 29 1014.2
20260503181213 17 286 12.9 14.5 0.00 0.00 0.00 30 1014.4
20260503180709 17 285 8.0 11.3 0.00 0.00 0.00 31 1014.5
20260503180208 17 282 14.5 14.5 0.00 0.00 0.00 31 1014.6
20260503175704 16 281 11.3 14.5 0.00 0.00 0.00 31 1014.6
20260503175202 16 279 4.8 4.8 0.00 0.00 0.00 32 1014.9
20260503174658 16 282 11.3 14.5 0.00 0.00 0.00 32 1014.7
20260503174156 16 314 9.7 12.9 0.00 0.00 0.00 32 1014.7
20260503173650 16 277 6.4 8.0 0.00 0.00 0.00 33 1014.8
20260503173147 16 282 12.9 14.5 0.00 0.00 0.00 32 1014.6
20260503172644 15 271 8.0 9.7 0.00 0.00 0.00 35 1014.7
20260503172141 15 269 4.8 4.8 0.00 0.00 0.00 35 1014.8
20260503171637 15 282 8.0 9.7 0.00 0.00 0.00 37 1014.9
20260503171135 14 274 4.8 4.8 0.00 0.00 0.00 39 1015.0
20260503170632 14 289 8.0 9.7 0.00 0.00 0.00 39 1014.9
20260503170129 13 276 6.4 8.0 0.00 0.00 0.00 40 1015.0